This is the latest recevied weather packets stored in our database for station/object KE4AMH. If no packets are shown the sender has not sent any weather packets the latest 10 day(s).
| Time | Temp. | Humidity | Pressure | Rain* | Wind** | Luminosity | Snow |
|---|---|---|---|---|---|---|---|
| 1778089780 | 26.67° C | 64% | 1014.1 hPa | 0 mm | - | 581 W/m² | - |
| 1778089479 | 26.11° C | 66% | 1014 hPa | 0 mm | - | 456 W/m² | - |
| 1778089174 | 25.56° C | 66% | 1014 hPa | 0 mm | - | 904 W/m² | - |
| 1778088872 | 25.56° C | 67% | 1014.2 hPa | 0 mm | - | 404 W/m² | - |
| 1778088564 | 25° C | 69% | 1014.4 hPa | 0 mm | - | 339 W/m² | - |
| 1778088261 | 25° C | 70% | 1014.4 hPa | 0 mm | - | 254 W/m² | - |
| 1778087957 | 23.89° C | 70% | 1014.6 hPa | 0 mm | - | 168 W/m² | - |
| 1778087655 | 24.44° C | 70% | 1015 hPa | 0 mm | - | 154 W/m² | - |
| 1778087352 | 25° C | 70% | 1014.9 hPa | 0 mm | - | 185 W/m² | - |
| 1778087048 | 25° C | 69% | 1014.7 hPa | 0 mm | - | 528 W/m² | - |
| 1778086742 | 25° C | 70% | 1014.3 hPa | 0 mm | - | 399 W/m² | - |
| 1778086439 | 24.44° C | 72% | 1014.6 hPa | 0 mm | - | 573 W/m² | - |
| 1778086135 | 23.89° C | 73% | 1014.9 hPa | 0 mm | - | 220 W/m² | - |
| 1778085832 | 23.89° C | 75% | 1014.4 hPa | 0 mm | - | 256 W/m² | - |
| 1778085529 | 23.33° C | 75% | 1014.4 hPa | 0 mm | - | 165 W/m² | - |
| 1778085224 | 23.33° C | 75% | 1014.9 hPa | 0 mm | - | 215 W/m² | - |
| 1778084919 | 22.78° C | 75% | 1015.9 hPa | 0 mm | - | 65 W/m² | - |
| 1778084618 | 22.78° C | 76% | 1015.7 hPa | 0 mm | - | 130 W/m² | - |
| 1778084315 | 22.78° C | 75% | 1015.7 hPa | 0 mm | - | 106 W/m² | - |
| 1778084012 | 23.33° C | 73% | 1015.8 hPa | 0 mm | - | 91 W/m² | - |
| 1778083709 | 23.89° C | 73% | 1015.6 hPa | 0 mm | - | 251 W/m² | - |
| 1778083406 | 24.44° C | 72% | 1015.2 hPa | 0 mm | - | 651 W/m² | - |
| 1778083105 | 23.33° C | 73% | 1015.4 hPa | 0 mm | - | 175 W/m² | - |
| 1778082801 | 23.33° C | 73% | 1015.3 hPa | 0 mm | - | 396 W/m² | - |
| 1778081674 | 22.78° C | 74% | 1015.1 hPa | 0 mm | - | 358 W/m² | - |
* Rain latest hour (hover to see other rain measurements)
** Current wind speed in m/s (hover to see current wind gust speed)